�������l�o���
Date,Time,MP-1(��Sv/h),MP-2(��Sv/h),MP-3(��Sv/h),MP-4(��Sv/h),MP-5(��Sv/h),MP-6(��Sv/h),MP-7(��Sv/h),MP-8(��Sv/h),����,����(m/s),���J
2023/02/06,00:00,0.568,0.824,0.516,1.059,0.731,0.323,0.587,0.558,��,5.0,��
2023/02/06,00:10,0.568,0.822,0.519,1.056,0.730,0.322,0.585,0.557,���k��,5.0,��
2023/02/06,00:20,0.567,0.824,0.517,1.057,0.729,0.323,0.587,0.556,��,3.8,��
2023/02/06,00:30,0.569,0.823,0.518,1.057,0.730,0.323,0.586,0.557,���k��,4.1,�L
2023/02/06,00:40,0.569,0.820,0.517,1.060,0.731,0.323,0.587,0.556,���k��,3.9,��
2023/02/06,00:50,0.568,0.822,0.516,1.059,0.730,0.324,0.586,0.557,���k��,3.9,��
2023/02/06,01:00,0.568,0.824,0.518,1.059,0.729,0.323,0.586,0.557,���k��,3.8,��
2023/02/06,01:10,0.569,0.822,0.518,1.056,0.731,0.323,0.585,0.556,��,3.1,��
2023/02/06,01:20,0.569,0.823,0.516,1.059,0.731,0.324,0.586,0.557,��,3.4,��
2023/02/06,01:30,0.567,0.821,0.517,1.057,0.729,0.324,0.587,0.558,��,3.2,��
2023/02/06,01:40,0.569,0.825,0.517,1.059,0.730,0.323,0.587,0.558,��,3.4,�L
2023/02/06,01:50,0.566,0.823,0.516,1.059,0.731,0.324,0.585,0.556,��,3.6,�L
2023/02/06,02:00,0.567,0.824,0.516,1.057,0.731,0.324,0.586,0.555,���쐼,3.1,��
2023/02/06,02:10,0.567,0.822,0.518,1.057,0.730,0.323,0.586,0.557,���쐼,2.8,��
2023/02/06,02:20,0.569,0.824,0.517,1.058,0.731,0.323,0.585,0.556,���쐼,3.1,��
2023/02/06,02:30,0.568,0.824,0.518,1.058,0.731,0.323,0.585,0.557,���쐼,3.0,��
2023/02/06,02:40,0.568,0.824,0.516,1.057,0.730,0.324,0.584,0.557,�쐼,2.3,��
2023/02/06,02:50,0.568,0.824,0.516,1.057,0.731,0.324,0.585,0.557,�쐼,2.5,��
2023/02/06,03:00,0.569,0.824,0.517,1.060,0.730,0.323,0.585,0.556,���쐼,2.8,��
2023/02/06,03:10,0.571,0.822,0.517,1.057,0.731,0.325,0.585,0.558,���쐼,3.0,��
2023/02/06,03:20,0.567,0.824,0.515,1.060,0.731,0.324,0.585,0.556,�쐼,3.1,��
2023/02/06,03:30,0.569,0.823,0.517,1.056,0.730,0.323,0.586,0.558,�쐼,2.6,��
2023/02/06,03:40,0.569,0.823,0.515,1.057,0.730,0.325,0.585,0.557,�쐼,2.0,��
2023/02/06,03:50,0.567,0.823,0.519,1.058,0.732,0.323,0.586,0.558,�쐼,2.9,��
2023/02/06,04:00,0.570,0.823,0.517,1.059,0.730,0.323,0.586,0.557,�쐼,2.6,��
2023/02/06,04:10,0.570,0.823,0.517,1.059,0.731,0.323,0.587,0.558,���쐼,2.0,��
2023/02/06,04:20,0.571,0.822,0.517,1.059,0.731,0.325,0.586,0.557,���쐼,1.8,��
2023/02/06,04:30,0.571,0.821,0.517,1.059,0.730,0.323,0.587,0.559,��,1.5,��
2023/02/06,04:40,0.569,0.825,0.517,1.058,0.730,0.324,0.585,0.556,��,2.6,�L
2023/02/06,04:50,0.569,0.824,0.517,1.060,0.732,0.324,0.585,0.558,���쐼,3.9,��
2023/02/06,05:00,0.568,0.823,0.519,1.059,0.731,0.324,0.585,0.556,���쐼,4.0,��
2023/02/06,05:10,0.568,0.824,0.517,1.059,0.732,0.324,0.586,0.557,���쐼,2.3,��
2023/02/06,05:20,0.569,0.824,0.517,1.058,0.731,0.323,0.587,0.558,���쐼,2.3,��
2023/02/06,05:30,0.568,0.823,0.517,1.059,0.729,0.325,0.586,0.556,��쐼,1.8,��
2023/02/06,05:40,0.568,0.825,0.517,1.058,0.732,0.323,0.586,0.556,��,1.7,��
2023/02/06,05:50,0.568,0.825,0.516,1.057,0.729,0.324,0.584,0.557,��,0.6,��
2023/02/06,06:00,0.570,0.822,0.517,1.059,0.731,0.323,0.586,0.557,��쓌,1.2,��
2023/02/06,06:10,0.570,0.824,0.516,1.056,0.730,0.323,0.586,0.558,��쓌,0.6,��
2023/02/06,06:20,0.568,0.824,0.516,1.056,0.731,0.323,0.585,0.557,�쐼,1.5,��
2023/02/06,06:30,0.569,0.822,0.517,1.057,0.730,0.323,0.585,0.557,���쐼,3.3,��
2023/02/06,06:40,0.569,0.823,0.516,1.059,0.730,0.324,0.585,0.557,���쐼,6.7,��
2023/02/06,06:50,0.569,0.822,0.517,1.058,0.730,0.323,0.586,0.556,�쐼,8.0,��
2023/02/06,07:00,0.568,0.822,0.517,1.055,0.729,0.325,0.586,0.557,���쐼,8.6,��
2023/02/06,07:10,0.569,0.822,0.517,1.056,0.730,0.324,0.584,0.557,��,7.7,��
2023/02/06,07:20,0.570,0.822,0.517,1.056,0.731,0.324,0.586,0.557,���쐼,8.1,��
2023/02/06,07:30,0.569,0.824,0.515,1.059,0.730,0.323,0.586,0.557,���쐼,8.8,��
2023/02/06,07:40,0.570,0.823,0.516,1.057,0.729,0.325,0.585,0.557,���쐼,9.2,��
2023/02/06,07:50,0.569,0.822,0.516,1.057,0.730,0.324,0.588,0.558,��,6.4,��
2023/02/06,08:00,0.567,0.822,0.518,1.058,0.731,0.322,0.587,0.556,��,6.3,��
2023/02/06,08:10,0.570,0.822,0.517,1.058,0.730,0.323,0.588,0.558,��,6.7,��
2023/02/06,08:20,0.569,0.820,0.517,1.059,0.730,0.324,0.587,0.557,��,5.3,��
2023/02/06,08:30,0.569,0.822,0.517,1.058,0.731,0.324,0.587,0.557,��,9.0,��
2023/02/06,08:40,0.569,0.824,0.518,1.058,0.728,0.325,0.587,0.558,��,9.7,��
2023/02/06,08:50,0.569,0.824,0.517,1.058,0.729,0.324,0.587,0.558,��,8.2,��
2023/02/06,09:00,0.569,0.822,0.518,1.059,0.730,0.325,0.587,0.558,��,7.2,��
2023/02/06,09:10,0.569,0.823,0.518,1.059,0.730,0.324,0.589,0.558,���k��,7.4,��
2023/02/06,09:20,0.569,0.821,0.518,1.061,0.730,0.323,0.587,0.557,�k��,3.1,��
2023/02/06,09:30,0.564,0.821,0.517,1.061,0.729,0.324,0.586,0.557,�k,1.2,��
2023/02/06,09:40,0.559,0.820,0.518,1.058,0.731,0.324,0.586,0.557,�k�k��,2.8,��
2023/02/06,09:50,0.560,0.821,0.517,1.060,0.730,0.324,0.587,0.558,���k��,4.5,��
2023/02/06,10:00,0.562,0.819,0.519,1.060,0.732,0.325,0.586,0.557,���k��,3.7,��
2023/02/06,10:10,0.563,0.825,0.519,1.061,0.731,0.324,0.586,0.557,���쐼,3.7,��
2023/02/06,10:20,0.562,0.821,0.517,1.059,0.730,0.324,0.586,0.557,���쐼,4.3,��
2023/02/06,10:30,0.561,0.819,0.519,1.060,0.731,0.326,0.585,0.559,���k��,4.4,��
2023/02/06,10:40,0.570,0.817,0.517,1.062,0.733,0.324,0.587,0.558,�쐼,2.6,��
2023/02/06,10:50,0.572,0.815,0.518,1.062,0.733,0.324,0.586,0.559,���k��,5.4,��
2023/02/06,11:00,0.570,0.814,0.518,1.060,0.732,0.325,0.586,0.560,��,6.8,��
2023/02/06,11:10,0.572,0.814,0.519,1.058,0.733,0.324,0.584,0.558,���쐼,7.7,��
2023/02/06,11:20,0.570,0.816,0.519,1.061,0.733,0.325,0.585,0.560,��,8.2,��
2023/02/06,11:30,0.570,0.818,0.518,1.059,0.731,0.324,0.587,0.559,���쐼,6.6,��
2023/02/06,11:40,0.573,0.817,0.518,1.061,0.733,0.323,0.587,0.557,��,5.6,��
2023/02/06,11:50,0.570,0.815,0.517,1.061,0.731,0.323,0.587,0.558,���k��,4.6,��
2023/02/06,12:00,0.571,0.815,0.517,1.060,0.733,0.324,0.586,0.557,��,2.8,��
2023/02/06,12:10,0.570,0.814,0.520,1.062,0.732,0.325,0.587,0.560,���쐼,5.0,��
2023/02/06,12:20,0.570,0.817,0.519,1.062,0.730,0.324,0.586,0.560,��,7.6,��
2023/02/06,12:30,0.569,0.815,0.518,1.063,0.733,0.323,0.587,0.558,��,7.9,��
2023/02/06,12:40,0.569,0.816,0.518,1.062,0.730,0.325,0.588,0.558,���쐼,7.1,��
2023/02/06,12:50,0.570,0.814,0.519,1.061,0.732,0.326,0.587,0.561,���쐼,6.2,��
2023/02/06,13:00,0.572,0.820,0.517,1.060,0.730,0.325,0.586,0.559,���쐼,4.9,��
2023/02/06,13:10,0.572,0.822,0.518,1.061,0.730,0.326,0.586,0.558,��,6.9,��
2023/02/06,13:20,0.572,0.821,0.518,1.060,0.731,0.326,0.589,0.557,��,6.1,��
2023/02/06,13:30,0.571,0.823,0.519,1.062,0.730,0.326,0.589,0.558,��,5.9,��
2023/02/06,13:40,0.571,0.821,0.518,1.062,0.732,0.325,0.588,0.558,�k�k��,3.0,��
2023/02/06,13:50,0.570,0.825,0.516,1.060,0.731,0.327,0.587,0.557,�k�k��,1.5,��
2023/02/06,14:00,0.569,0.821,0.518,1.064,0.731,0.326,0.587,0.557,�k��,2.6,��
2023/02/06,14:10,0.571,0.823,0.517,1.061,0.732,0.326,0.585,0.559,���k��,3.8,��
2023/02/06,14:20,0.569,0.824,0.516,1.062,0.731,0.326,0.587,0.558,���k��,4.1,��
2023/02/06,14:30,0.569,0.824,0.515,1.062,0.732,0.323,0.585,0.557,�k��,4.5,��
2023/02/06,14:40,0.569,0.822,0.517,1.061,0.731,0.324,0.586,0.559,���k��,5.2,��
2023/02/06,14:50,0.570,0.822,0.517,1.063,0.734,0.326,0.587,0.558,�k��,5.1,��
2023/02/06,15:00,0.572,0.823,0.517,1.061,0.731,0.325,0.585,0.557,�k�k��,5.0,��
2023/02/06,15:10,0.568,0.823,0.518,1.059,0.730,0.324,0.588,0.557,�k�k��,6.9,��
2023/02/06,15:20,0.570,0.823,0.517,1.062,0.732,0.325,0.587,0.556,�k�k��,5.6,��
2023/02/06,15:30,0.569,0.824,0.517,1.062,0.734,0.326,0.587,0.557,�k�k��,5.9,��
2023/02/06,15:40,0.571,0.826,0.518,1.063,0.734,0.326,0.588,0.559,�k�k��,5.0,��
2023/02/06,15:50,0.572,0.824,0.520,1.061,0.733,0.326,0.588,0.559,�k�k��,4.9,��
2023/02/06,16:00,0.571,0.825,0.519,1.062,0.730,0.325,0.588,0.560,�k��,3.3,��
2023/02/06,16:10,0.572,0.828,0.517,1.057,0.733,0.326,0.587,0.559,�k��,3.8,��
2023/02/06,16:20,0.572,0.828,0.518,1.060,0.731,0.325,0.589,0.560,�k�k��,3.3,��
2023/02/06,16:30,0.571,0.825,0.519,1.061,0.731,0.326,0.588,0.561,�k�k��,3.2,��
2023/02/06,16:40,0.570,0.826,0.518,1.062,0.731,0.325,0.591,0.560,�k�k��,2.0,��
2023/02/06,16:50,0.571,0.827,0.519,1.059,0.732,0.326,0.588,0.559,�k�k��,2.0,��
2023/02/06,17:00,0.572,0.824,0.517,1.059,0.731,0.324,0.588,0.561,�k�k��,1.9,��
2023/02/06,17:10,0.571,0.823,0.519,1.062,0.733,0.325,0.587,0.558,�k�k��,1.5,��
2023/02/06,17:20,0.571,0.827,0.519,1.059,0.731,0.326,0.587,0.557,�k�k��,1.5,��
2023/02/06,17:30,0.570,0.826,0.519,1.061,0.734,0.325,0.588,0.558,�k,1.2,��
2023/02/06,17:40,0.571,0.827,0.520,1.061,0.733,0.326,0.587,0.557,�k��,1.2,��
2023/02/06,17:50,0.570,0.825,0.518,1.060,0.735,0.324,0.587,0.556,�k��,1.2,��
2023/02/06,18:00,0.570,0.823,0.517,1.060,0.733,0.325,0.585,0.558,�k��,0.9,��
2023/02/06,18:10,0.571,0.825,0.518,1.061,0.736,0.324,0.588,0.558,-,CALM,��
2023/02/06,18:20,0.569,0.827,0.518,1.060,0.734,0.324,0.586,0.558,-,CALM,��
2023/02/06,18:30,0.570,0.824,0.519,1.062,0.733,0.325,0.586,0.559,�k�k��,0.8,��
2023/02/06,18:40,0.569,0.824,0.518,1.059,0.733,0.324,0.586,0.556,�k��,1.5,��
2023/02/06,18:50,0.570,0.824,0.517,1.059,0.732,0.324,0.587,0.557,�k�k��,1.9,��
2023/02/06,19:00,0.570,0.825,0.518,1.059,0.732,0.326,0.587,0.557,�k,2.3,��
2023/02/06,19:10,0.573,0.825,0.518,1.063,0.734,0.325,0.587,0.557,�k,2.3,��
2023/02/06,19:20,0.570,0.824,0.516,1.060,0.734,0.324,0.586,0.558,�k,1.7,��
2023/02/06,19:30,0.570,0.825,0.518,1.060,0.734,0.325,0.587,0.557,�k,1.2,��
2023/02/06,19:40,0.570,0.825,0.517,1.058,0.733,0.325,0.587,0.557,�k�k��,1.2,��
2023/02/06,19:50,0.570,0.825,0.518,1.060,0.734,0.324,0.586,0.558,�k�k��,1.2,��
2023/02/06,20:00,0.568,0.825,0.516,1.060,0.733,0.324,0.588,0.557,�k��,1.4,��
2023/02/06,20:10,0.570,0.826,0.517,1.060,0.733,0.324,0.587,0.558,��,2.3,��
2023/02/06,20:20,0.570,0.826,0.517,1.061,0.735,0.325,0.586,0.556,���k��,2.8,��
2023/02/06,20:30,0.569,0.825,0.518,1.061,0.735,0.324,0.587,0.557,��,4.3,��
2023/02/06,20:40,0.570,0.825,0.519,1.059,0.734,0.324,0.587,0.557,��,4.9,��
2023/02/06,20:50,0.570,0.824,0.519,1.060,0.734,0.324,0.585,0.558,���쐼,6.0,��
2023/02/06,21:00,0.570,0.825,0.517,1.060,0.733,0.325,0.587,0.558,��,8.0,��
2023/02/06,21:10,0.569,0.825,0.518,1.061,0.731,0.324,0.586,0.558,��,9.0,��
2023/02/06,21:20,0.568,0.826,0.519,1.060,0.732,0.326,0.587,0.558,��,9.4,��
2023/02/06,21:30,0.570,0.824,0.518,1.060,0.733,0.324,0.586,0.557,���k��,9.0,��
2023/02/06,21:40,0.570,0.826,0.518,1.061,0.733,0.324,0.586,0.556,���k��,8.0,��
2023/02/06,21:50,0.570,0.825,0.518,1.061,0.734,0.325,0.587,0.558,��,8.7,��
2023/02/06,22:00,0.570,0.825,0.517,1.059,0.733,0.325,0.587,0.558,��,8.8,��
2023/02/06,22:10,0.571,0.824,0.517,1.061,0.734,0.325,0.586,0.556,��,8.3,��
2023/02/06,22:20,0.571,0.825,0.517,1.061,0.731,0.325,0.587,0.559,��,9.7,��
2023/02/06,22:30,0.572,0.824,0.518,1.060,0.733,0.326,0.588,0.558,��,9.4,��
2023/02/06,22:40,0.569,0.825,0.520,1.061,0.731,0.326,0.587,0.559,��,8.5,��
2023/02/06,22:50,0.570,0.825,0.519,1.059,0.735,0.325,0.588,0.557,���k��,8.1,��
2023/02/06,23:00,0.570,0.825,0.518,1.061,0.734,0.326,0.588,0.557,���k��,8.2,��
2023/02/06,23:10,0.570,0.828,0.518,1.062,0.732,0.326,0.589,0.556,���k��,8.2,��
2023/02/06,23:20,0.570,0.826,0.519,1.062,0.733,0.326,0.590,0.559,��,6.8,��
2023/02/06,23:30,0.570,0.826,0.518,1.060,0.732,0.324,0.590,0.558,��,5.9,��
2023/02/06,23:40,0.571,0.825,0.518,1.062,0.732,0.326,0.588,0.559,���k��,5.7,��
2023/02/06,23:50,0.569,0.826,0.518,1.062,0.733,0.326,0.588,0.558,���k��,4.8,��
